Location: Ferchesar
(52.6477°N, 12.4298°E)
Time: 06:29:29
(UTC+02:00)

Transit 4A - Pass Details

Date: 01 March 2021
Orbit: 869 x 976 km, 66.8° (Epoch: 12 April)

Event Time Altitude Azimuth Distance (km) Brightness Sun altitude
Rises 11:51:53 0° 222° (SW) 3,660 11.5 29.6°
Reaches altitude 10° 11:54:28 10° 224° (SW) 2,711 11.0 29.6°
Maximum altitude 12:00:49 79° 311° (NW) 983 8.5 29.8°
Drops below altitude 10° 12:07:05 10° 38° (NE) 2,668 10.0 29.9°
Sets 12:09:36 0° 40° (NE) 3,600 10.6 29.9°
